Theta_e
307 309 312 312 313 312 312 312 311 311 310 310 309 309 311 313 314 314 315 317 320 321 322 323 324 325 326 326 325 326 326 326 326 327 326 326 326 327 327 326 324 324 324
307 311 315 314 313 311 309 309 309 310 309 309 309 309 311 312 312 312 312 313 314 318 319 320 321 324 325 325 325 325 326 326 326 327 327 326 326 326 326 325 326 325 325
305 311 314 315 314 312 311 310 310 309 309 309 310 310 310 310 311 311 312 312 313 313 314 319 319 321 323 324 325 325 325 326 326 326 326 326 326 326 326 325 325 325 324
304 308 312 314 315 315 314 313 312 311 310 310 310 310 311 311 312 313 314 315 314 315 315 314 317 320 320 323 323 324 325 325 325 325 325 325 325 325 325 324 322 322 321
303 306 309 312 313 314 315 315 315 315 315 314 314 315 315 315 315 315 315 315 315 316 316 317 317 317 321 320 323 323 324 324 324 323 323 323 322 320 320 320 318 319 318
302 302 303 306 307 307 308 309 311 312 313 313 313 313 313 313 313 313 314 314 314 315 316 316 317 319 319 319 322 321 323 323 323 322 322 321 318 316 313 313 312 312 310
300 301 301 302 303 304 305 305 305 305 306 306 307 307 307 308 309 311 312 312 313 315 315 315 315 316 318 318 317 318 318 318 318 317 314 310 307 305 306 306 307 306 308
299 300 301 301 301 302 303 303 303 303 303 303 303 303 303 304 305 308 310 311 309 309 310 310 311 312 313 314 312 309 305 305 306 307 305 302 302 301 302 302 302 302 303
298 298 300 301 301 301 300 300 300 300 300 300 300 301 302 302 303 305 308 306 305 305 305 305 305 305 305 307 307 303 301 300 299 299 299 299 298 298 299 300 298 298 298
296 297 298 299 300 300 300 300 299 299 298 299 299 299 299 300 301 302 304 302 300 299 299 299 299 299 300 301 302 301 298 297 297 297 296 296 296 295 295 295 294 293 294
295 296 297 297 298 299 299 299 299 298 298 297 298 298 298 298 299 300 300 301 299 297 296 295 295 295 297 298 298 297 296 295 294 294 293 291 291 291 291 292 292 291 291
293 294 295 296 296 297 297 297 297 296 295 294 294 294 295 296 296 297 297 297 297 295 294 293 293 292 292 292 292 291 291 291 290 289 289 288 288 288 287 288 288 289 288
293 293 293 294 294 294 295 295 295 295 294 292 291 290 290 291 293 294 295 295 294 292 291 291 291 290 289 289 289 288 287 287 286 286 286 286 285 285 286 286 286 287 287
293 293 292 292 292 293 293 293 293 293 293 292 291 289 289 289 289 290 293 293 292 291 290 289 288 287 287 286 286 285 285 285 285 285 284 285 285 285 285 285 285 286 286
294 293 292 291 291 291 291 291 292 292 291 292 292 290 289 289 289 289 290 292 291 289 287 286 285 285 284 284 284 284 283 282 283 283 283 283 283 283 284 284 284 285 285
295 294 293 291 290 291 290 289 289 289 291 291 289 289 289 288 288 289 290 290 289 287 286 285 284 284 283 283 282 282 282 281 281 281 281 281 280 281 282 282 282 283 284
296 295 294 292 290 290 290 290 288 288 288 289 290 289 287 286 286 287 288 288 286 286 286 285 284 283 283 282 281 281 280 280 280 279 279 278 279 279 279 279 280 280 281
297 297 295 294 292 290 289 289 289 289 287 287 288 288 286 285 285 286 287 287 286 285 285 284 284 283 282 281 280 279 279 279 279 278 278 278 278 278 278 279 279 280 281
299 298 297 295 294 292 290 289 289 289 289 289 287 287 287 286 286 286 286 285 285 284 284 284 283 283 282 281 280 279 278 278 279 278 278 277 277 277 278 278 279 280 280
299 299 298 297 295 292 291 289 288 288 288 288 287 288 287 286 286 286 286 286 285 284 284 283 283 282 282 281 280 279 278 278 278 278 277 277 277 277 278 278 278 278 278
300 299 297 296 295 294 292 290 289 288 288 288 288 288 288 287 287 287 286 286 285 284 283 283 282 282 281 281 280 279 278 278 278 278 277 277 277 278 278 278 279 279 278
299 298 296 295 295 294 293 292 290 289 288 288 288 287 287 287 287 287 286 286 285 284 283 282 282 281 281 280 279 278 278 277 277 277 277 277 278 278 278 278 279 278 277
298 297 296 294 294 293 291 291 290 289 289 288 288 287 286 287 287 287 286 285 285 284 283 282 281 281 280 279 279 278 277 277 277 277 277 278 278 279 279 279 279 278 278
297 296 295 294 292 291 290 290 290 289 289 288 287 287 287 286 286 286 286 285 284 284 283 282 281 280 280 279 278 277 277 277 277 277 277 278 278 279 279 279 279 279 279
296 295 294 293 292 291 290 289 288 288 288 288 288 287 287 286 286 285 285 284 284 283 283 282 281 280 279 278 278 277 277 277 277 278 278 278 279 279 279 279 280 279 280
294 294 292 292 291 290 290 289 288 288 288 289 287 287 287 286 286 285 285 284 283 283 282 281 280 280 278 278 277 277 277 277 278 278 279 279 279 279 279 279 279 280 280
Wind_Speed
17 14 12 17 19 19 21 23 23 24 23 23 25 22 23 21 18 16 16 17 20 25 28 28 29 29 30 31 31 28 26 26 14 24 29 27 27 29 29 33 35 39 37
12 10 11 12 14 15 16 17 17 18 18 20 19 22 20 17 17 17 18 19 19 21 23 25 28 28 30 29 30 29 30 31 29 23 26 29 31 32 33 35 35 36 37
14 8 9 4 8 13 15 15 14 15 16 16 17 18 20 21 21 22 22 22 22 24 24 25 26 27 27 28 28 29 30 31 31 27 26 27 25 26 26 27 30 34 37
16 10 11 8 7 6 9 12 13 13 13 14 14 16 17 19 20 21 21 24 25 26 26 27 28 29 30 26 27 27 26 26 23 23 24 21 18 19 21 24 28 29 32
20 14 12 10 11 5 2 2 4 6 8 10 12 13 15 17 18 20 22 20 20 24 26 26 27 30 32 30 29 26 25 23 19 17 16 12 12 11 13 18 18 16 18
22 21 17 15 12 12 9 7 2 0 3 4 4 7 9 11 15 18 21 22 20 19 19 20 19 24 25 24 27 19 17 18 15 15 16 12 7 5 7 5 6 4 3
21 21 21 18 15 13 11 9 10 8 6 5 2 2 5 9 13 15 15 14 14 12 9 10 9 6 7 9 7 8 7 11 14 10 8 5 3 1 3 2 3 4 4
20 21 21 20 17 14 12 11 10 9 9 8 7 5 5 7 8 6 4 6 4 2 4 6 8 9 9 10 10 11 10 9 7 7 8 7 7 3 2 1 3 5 8
18 18 17 15 14 13 13 12 11 9 9 9 8 8 9 9 6 4 6 10 12 11 10 10 11 11 11 13 15 16 15 14 10 12 13 10 9 8 7 3 7 8 3
9 9 10 10 11 10 9 9 8 9 10 9 10 12 14 11 6 9 11 17 20 19 19 19 17 16 14 14 15 15 16 11 9 10 12 11 9 9 9 10 8 7 2
5 4 4 5 5 5 5 5 6 7 8 8 9 10 12 15 12 8 10 15 17 16 16 17 15 15 13 12 11 11 11 9 8 9 7 6 6 7 8 7 6 5 5
4 3 3 3 2 1 1 3 3 4 6 6 6 7 8 10 12 12 11 12 11 14 15 15 14 14 13 13 13 12 11 9 9 10 9 8 7 7 8 8 8 6 6
5 5 3 3 2 2 1 1 1 1 2 2 3 6 7 8 8 10 11 10 10 12 10 10 10 10 12 14 13 12 10 10 10 11 8 6 7 7 7 7 7 7 9
8 6 5 4 4 2 1 1 1 1 1 1 1 2 4 5 7 7 6 9 7 8 9 9 10 10 10 10 10 10 10 9 8 9 7 4 5 8 8 10 10 12 10
12 10 8 7 5 3 1 0 1 1 2 3 3 2 1 3 5 6 5 3 3 5 6 7 7 8 8 8 8 8 8 8 9 7 8 9 8 9 10 11 11 9 7
16 15 13 11 9 7 4 2 1 1 2 1 1 2 1 1 1 3 3 3 4 3 2 4 6 5 6 6 5 6 7 8 9 7 8 9 8 11 10 11 10 10 11
21 18 15 13 12 12 11 11 9 6 5 5 5 5 5 5 3 3 4 3 2 1 4 5 6 5 5 5 4 4 5 5 5 6 6 7 7 7 8 12 13 13 13
24 22 20 17 17 16 17 16 14 14 13 12 11 10 9 8 6 5 5 4 2 1 3 4 4 3 3 2 2 1 2 4 5 6 7 7 8 10 11 14 16 17 19
27 27 24 22 22 21 19 18 18 17 17 14 13 13 13 10 8 6 5 4 4 4 4 3 3 3 1 1 3 2 2 1 3 6 7 9 9 10 14 16 17 15 17
28 30 29 27 25 23 21 20 19 18 18 17 17 16 14 12 11 10 8 6 5 6 5 5 5 5 5 6 7 6 6 4 4 5 8 11 10 12 15 15 16 15 14
26 28 28 28 27 26 25 25 24 21 21 21 21 17 16 17 15 13 11 11 10 9 9 9 8 8 8 7 7 10 10 7 5 6 10 11 10 14 14 15 16 18 17
25 26 25 27 29 26 27 27 25 25 24 23 22 18 16 16 15 14 13 13 13 12 10 10 10 10 9 9 9 11 12 10 8 9 11 7 9 13 15 15 17 18 18
20 22 24 25 26 26 23 25 26 26 26 24 22 19 18 18 19 18 17 15 14 13 12 11 10 10 10 10 11 12 14 12 11 9 6 8 11 14 15 17 18 20 20
19 20 22 24 22 22 22 23 25 25 24 24 23 22 21 20 19 20 18 15 14 13 12 11 11 11 11 11 11 10 10 8 6 6 8 10 13 14 15 16 17 18 20
17 19 21 22 21 20 20 19 21 22 22 23 23 22 22 20 19 17 15 14 13 13 12 12 11 11 12 11 11 11 10 8 6 6 8 11 14 12 13 14 15 17 17
16 17 19 19 19 20 19 19 20 21 22 23 22 21 19 19 17 17 16 14 14 14 12 13 11 11 12 11 11 11 9 6 8 8 10 10 10 11 12 12 14 16 16
Wind_Direction
304 301 289 273 271 266 262 263 264 264 263 260 257 267 264 260 255 258 264 267 266 265 264 260 255 244 234 234 238 240 238 232 240 250 247 245 242 257 259 250 255 263 270
347 320 307 273 266 263 261 263 264 262 261 261 261 258 262 262 263 267 272 272 272 271 269 266 263 258 245 232 231 230 237 236 241 244 245 237 241 252 254 252 264 269 272
355 2 45 19 276 276 276 275 271 268 266 263 263 264 268 271 274 274 276 277 275 270 270 267 263 257 248 242 233 234 231 235 237 240 239 241 237 245 254 262 268 271 273
9 24 49 37 4 325 291 282 276 276 272 265 263 266 269 273 275 275 276 273 272 273 273 268 268 265 254 249 241 235 242 241 240 241 241 224 226 240 247 258 265 275 281
11 31 34 29 30 14 11 309 298 283 277 275 270 268 270 272 272 267 264 265 267 270 274 270 271 269 266 256 247 244 238 241 236 245 231 251 232 221 234 255 252 267 272
21 22 29 35 35 34 33 30 43 2 264 269 281 277 277 273 272 271 266 260 259 262 268 274 273 264 256 256 248 255 226 239 243 248 241 241 232 201 195 217 263 282 282
23 24 26 25 25 30 33 45 48 47 55 58 42 305 320 299 296 281 273 260 263 247 241 241 233 223 204 193 193 223 258 261 246 234 199 172 143 340 265 257 258 273 263
31 29 29 28 28 31 34 40 49 51 54 56 48 25 8 353 337 340 238 203 183 154 162 180 178 171 172 176 161 131 109 84 80 109 104 94 105 96 67 5 333 314 304
27 29 30 29 32 36 41 39 37 41 47 54 57 52 48 34 17 90 155 132 129 123 128 130 127 114 119 146 141 122 111 97 83 94 97 92 79 57 49 57 35 25 352
12 17 23 35 46 46 42 41 46 56 59 62 59 58 55 57 70 109 127 124 106 97 98 87 87 96 99 114 117 124 104 101 113 101 88 78 68 56 42 48 46 51 12
347 348 9 34 48 63 78 82 83 87 90 83 79 70 68 60 50 75 108 116 116 102 90 85 81 85 86 93 107 111 112 135 114 102 91 81 52 37 31 25 22 23 8
303 311 331 338 7 25 86 108 106 113 106 99 92 80 73 73 60 65 85 103 117 114 101 95 84 79 80 81 88 89 95 103 90 87 74 55 38 23 15 13 1 337 304
270 278 289 297 315 331 278 220 176 157 148 94 55 44 35 38 50 65 58 69 81 93 98 99 96 89 88 84 75 73 78 78 85 87 69 44 21 7 6 4 9 352 329
254 261 266 269 272 271 273 240 202 187 195 193 103 68 51 48 48 56 80 93 94 95 103 90 85 88 85 95 95 86 78 71 79 78 53 33 14 26 19 14 359 358 337
250 250 246 244 243 228 207 181 177 33 307 286 267 254 353 42 38 34 44 95 110 105 114 108 95 88 83 80 79 75 61 56 56 44 17 15 16 13 14 6 3 344 321
247 248 245 242 238 234 231 211 195 198 201 240 212 239 207 116 82 68 75 102 132 170 136 118 104 94 80 71 66 57 46 37 36 32 14 10 3 350 359 355 2 353 336
250 258 255 245 239 232 228 228 227 226 217 211 204 203 202 188 174 173 159 130 130 184 144 129 115 98 80 60 50 37 33 34 28 10 9 9 7 6 358 4 0 354 342
252 255 254 250 245 240 234 232 229 223 220 220 213 210 206 203 199 196 193 206 257 122 157 159 154 148 131 106 120 58 13 15 18 8 4 6 11 8 5 2 0 353 345
251 252 250 250 246 243 240 235 233 230 229 228 215 210 210 211 210 206 206 209 210 200 198 205 209 212 249 303 312 283 285 321 348 352 353 353 354 358 356 355 350 343 336
256 256 254 250 249 244 241 238 238 238 240 238 234 232 221 216 222 228 238 242 243 242 241 250 261 269 277 287 309 307 303 313 322 330 334 336 342 346 347 344 340 329 319
266 264 258 254 251 251 248 244 245 244 245 245 245 240 234 229 231 231 235 239 247 251 251 254 258 262 269 275 289 290 286 287 293 304 319 328 334 337 340 333 329 330 325
271 269 265 255 256 252 251 250 248 248 249 249 251 247 240 235 239 238 243 246 249 249 248 248 256 263 269 273 275 280 276 277 279 293 309 308 323 330 330 328 327 328 326
271 267 265 262 258 259 252 251 249 248 249 249 250 248 240 234 236 241 245 244 239 238 244 250 258 264 272 275 271 279 283 268 276 290 288 307 316 326 328 327 330 330 325
275 271 268 267 262 254 246 245 246 247 248 249 247 244 241 239 238 240 243 245 240 241 248 254 260 269 272 269 269 284 274 271 273 258 285 295 306 319 324 327 332 333 334
279 269 263 262 257 247 247 242 242 242 245 249 248 245 242 238 236 239 241 245 241 237 246 254 258 266 269 265 260 265 270 269 245 263 282 286 302 311 317 325 332 337 339
284 271 267 266 254 249 240 237 235 239 243 245 247 246 242 236 235 236 235 231 232 241 240 245 252 258 262 255 254 256 252 242 266 261 272 287 306 308 313 325 333 337 339